M I D A S
Marine Information and Data Acquisition System
Tripno 974 of the Zeeleeuw from 2005-10-19 06:32:24 to 2005-10-19 13:12:36
Back to CruiseResearch ActivitiesStationsMapUnderway DataData graphs

EquipmentUnitsComments
TimeDGPSUTC
LatitudeDGPSDM.mWGS84
LongitudeDGPSDM.mWGS84
SpeedMeteo Stationm/sRelative wind speed
DirectionMeteo StationdegRelative wind direction
TemperatureMeteo Stationdeg CelciusAir temperature
PressureMeteo StationPaAtmospheric pressure
HumidityMeteo Station%Relative humidity
Missing or incorrect values are displayed as -999
Metereological data collected by the RV Zeeleeuw from 2005-10-19 06:33:04 to 2005-10-19 13:22:30
                                                                                    Next 1000 lines
Time Latitude Longitude Speed Direction Temperature Pressure Humidity
2005-10-19 06:33:14 51°13.603 2°56.094 -999 70 11.1 101070 100
2005-10-19 06:33:20 51°13.604 2°56.09 -999 83 11.1 101060 100
2005-10-19 06:33:24 51°13.605 2°56.087 -999 83 11.1 101060 100
2005-10-19 06:33:30 51°13.607 2°56.081 -999 34 11.1 101070 100
2005-10-19 06:33:35 51°13.608 2°56.076 -999 38 11.1 101070 100
2005-10-19 06:33:40 51°13.61 2°56.071 -999 56 11.1 101070 100
2005-10-19 06:33:44 51°13.611 2°56.067 -999 58 11.1 101070 100
2005-10-19 06:33:50 51°13.613 2°56.06 -999 66 11.1 101070 100
2005-10-19 06:33:55 51°13.615 2°56.054 -999 113 11.1 101070 100
2005-10-19 06:34:00 51°13.617 2°56.047 -999 97 11.1 101070 100
2005-10-19 06:34:06 51°13.62 2°56.039 -999 101 11.1 101070 100
2005-10-19 06:34:10 51°13.621 2°56.033 -999 105 11.1 101070 100
2005-10-19 06:34:15 51°13.623 2°56.026 -999 99 11.1 101070 100
2005-10-19 06:34:20 51°13.625 2°56.019 -999 122 11.1 101070 100
2005-10-19 06:34:24 51°13.627 2°56.012 -999 105 11.1 101070 100
2005-10-19 06:34:30 51°13.629 2°56.003 -999 113 11.1 101070 100
2005-10-19 06:34:35 51°13.632 2°55.995 -999 109 11.1 101070 100
2005-10-19 06:34:40 51°13.634 2°55.986 -999 98 11.1 101070 100
2005-10-19 06:34:44 51°13.636 2°55.979 -999 111 11.1 101070 100
2005-10-19 06:34:50 51°13.638 2°55.968 -999 99 11.1 101070 100
2005-10-19 06:34:55 51°13.641 2°55.959 -999 108 11.1 101070 100
2005-10-19 06:35:00 51°13.643 2°55.95 -999 107 11.1 101070 100
2005-10-19 06:35:06 51°13.647 2°55.938 -999 110 11.1 101070 100
2005-10-19 06:35:10 51°13.649 2°55.93 -999 105 11.1 101070 100
2005-10-19 06:35:16 51°13.653 2°55.918 -999 94 11.1 101070 100
2005-10-19 06:35:20 51°13.655 2°55.91 -999 122 11.1 101070 100
2005-10-19 06:35:24 51°13.658 2°55.902 -999 121 11.1 101070 100
2005-10-19 06:35:30 51°13.661 2°55.89 -999 152 11.1 101070 100
2005-10-19 06:35:35 51°13.664 2°55.88 -999 86 11.1 101070 100
2005-10-19 06:35:40 51°13.668 2°55.87 -999 110 11.1 101070 100
2005-10-19 06:35:44 51°13.67 2°55.862 -999 115 11.1 101070 100
2005-10-19 06:35:50 51°13.673 2°55.849 -999 129 11.1 101070 100
2005-10-19 06:35:55 51°13.676 2°55.839 -999 138 11.1 101070 100
2005-10-19 06:36:00 51°13.679 2°55.829 -999 126 11.2 101070 100
2005-10-19 06:36:04 51°13.681 2°55.821 -999 135 11.2 101070 100
2005-10-19 06:36:10 51°13.683 2°55.809 -999 134 11.1 101070 100
2005-10-19 06:36:15 51°13.685 2°55.8 -999 154 11.1 101070 100
2005-10-19 06:36:20 51°13.686 2°55.79 -999 166 11.1 101070 100
2005-10-19 06:36:25 51°13.687 2°55.781 -999 144 11.1 101070 100
2005-10-19 06:36:30 51°13.689 2°55.772 -999 129 11.2 101070 100
2005-10-19 06:36:35 51°13.69 2°55.764 -999 135 11.2 101070 100
2005-10-19 06:36:40 51°13.691 2°55.755 -999 131 11.2 101070 100
2005-10-19 06:36:45 51°13.692 2°55.748 -999 145 11.2 101070 100
2005-10-19 06:36:50 51°13.692 2°55.741 -999 139 11.2 101060 100
2005-10-19 06:36:55 51°13.692 2°55.737 -999 112 11.2 101060 100
2005-10-19 06:37:00 51°13.693 2°55.735 -999 127 11.2 101070 100
2005-10-19 06:37:04 51°13.694 2°55.735 -999 138 11.2 101070 100
2005-10-19 06:37:10 51°13.695 2°55.735 -999 123 11.1 101060 100
2005-10-19 06:37:15 51°13.696 2°55.737 -999 132 11.1 101060 100
2005-10-19 06:37:20 51°13.698 2°55.738 -999 134 11.2 101060 100
2005-10-19 06:37:24 51°13.699 2°55.74 -999 140 11.2 101060 100
2005-10-19 06:37:30 51°13.702 2°55.741 -999 157 11.2 101070 100
2005-10-19 06:37:35 51°13.705 2°55.743 -999 158 11.2 101070 100
2005-10-19 06:37:40 51°13.709 2°55.743 -999 165 11.2 101060 100
2005-10-19 06:37:44 51°13.712 2°55.744 -999 163 11.2 101060 100
2005-10-19 06:37:50 51°13.717 2°55.743 -999 209 11.2 101060 100
2005-10-19 06:37:55 51°13.721 2°55.743 -999 185 11.2 101060 100
2005-10-19 06:38:00 51°13.726 2°55.741 -999 205 11.1 101070 100
2005-10-19 06:38:04 51°13.729 2°55.739 -999 200 11.1 101070 100
2005-10-19 06:38:10 51°13.735 2°55.734 -999 255 11.2 101070 100
2005-10-19 06:38:15 51°13.741 2°55.728 -999 251 11.2 101070 100
2005-10-19 06:38:20 51°13.747 2°55.721 -999 235 11.2 101070 100
2005-10-19 06:38:24 51°13.752 2°55.715 -999 255 11.2 101070 100
2005-10-19 06:38:30 51°13.76 2°55.705 -999 251 11.2 101070 100
2005-10-19 06:38:35 51°13.768 2°55.697 -999 272 11.2 101070 100
2005-10-19 06:38:39 51°13.774 2°55.689 -999 280 11.2 101070 100
2005-10-19 06:38:44 51°13.783 2°55.68 -999 290 11.2 101070 100
2005-10-19 06:38:50 51°13.794 2°55.668 -999 292 11.2 101070 100
2005-10-19 06:38:55 51°13.804 2°55.659 -999 295 11.2 101070 100
2005-10-19 06:39:00 51°13.814 2°55.65 -999 294 11.2 101070 100
2005-10-19 06:39:04 51°13.822 2°55.642 -999 287 11.2 101070 100
2005-10-19 06:39:10 51°13.836 2°55.631 -999 292 11.2 101070 100
2005-10-19 06:39:15 51°13.847 2°55.623 -999 287 11.2 101070 100
2005-10-19 06:39:20 51°13.859 2°55.614 -999 292 11.2 101070 100
2005-10-19 06:39:24 51°13.869 2°55.607 -999 300 11.2 101070 100
2005-10-19 06:39:30 51°13.883 2°55.597 -999 341 11.2 101070 100
2005-10-19 06:39:35 51°13.895 2°55.587 -999 342 11.2 101070 100
2005-10-19 06:39:40 51°13.908 2°55.578 -999 327 11.2 101060 100
2005-10-19 06:39:44 51°13.918 2°55.571 -999 327 11.2 101060 100
2005-10-19 06:39:50 51°13.933 2°55.56 -999 326 11.2 101060 100
2005-10-19 06:39:55 51°13.945 2°55.551 -999 345 11.2 101060 100
2005-10-19 06:40:00 51°13.958 2°55.542 -999 330 11.2 101070 100
2005-10-19 06:40:04 51°13.968 2°55.535 -999 319 11.2 101070 100
2005-10-19 06:40:10 51°13.984 2°55.524 -999 312 11.2 101070 100
2005-10-19 06:40:15 51°13.996 2°55.515 -999 310 11.2 101070 100
2005-10-19 06:40:20 51°14.009 2°55.506 -999 314 11.2 101060 100
2005-10-19 06:40:24 51°14.019 2°55.498 -999 314 11.2 101060 100
2005-10-19 06:40:30 51°14.035 2°55.487 -999 263 11.2 101060 100
2005-10-19 06:40:35 51°14.048 2°55.478 -999 244 11.2 101060 100
2005-10-19 06:40:39 51°14.058 2°55.47 -999 278 11.2 101060 100
2005-10-19 06:40:44 51°14.071 2°55.46 -999 281 11.2 101060 100
2005-10-19 06:40:50 51°14.087 2°55.447 -999 290 11.2 101060 100
2005-10-19 06:40:55 51°14.101 2°55.437 -999 275 11.2 101060 100
2005-10-19 06:40:59 51°14.112 2°55.428 -999 273 11.2 101070 100
2005-10-19 06:41:04 51°14.125 2°55.417 -999 276 11.2 101070 100
2005-10-19 06:41:10 51°14.142 2°55.404 -999 289 11.2 101060 100
2005-10-19 06:41:15 51°14.155 2°55.392 -999 310 11.2 101060 100
2005-10-19 06:41:19 51°14.166 2°55.382 -999 326 11.2 101060 100
2005-10-19 06:41:24 51°14.179 2°55.369 -999 328 11.2 101060 100
2005-10-19 06:41:30 51°14.194 2°55.352 -999 323 11.2 101060 100
2005-10-19 06:41:35 51°14.207 2°55.337 -999 305 11.2 101060 100
2005-10-19 06:41:40 51°14.219 2°55.321 -999 315 11.2 101060 100
2005-10-19 06:41:44 51°14.228 2°55.308 -999 310 11.2 101060 100
2005-10-19 06:41:50 51°14.242 2°55.288 -999 234 11.2 101060 100
2005-10-19 06:41:55 51°14.253 2°55.27 -999 288 11.2 101060 100
2005-10-19 06:42:00 51°14.264 2°55.252 -999 304 11.2 101060 100
2005-10-19 06:42:04 51°14.272 2°55.236 -999 304 11.2 101060 100
2005-10-19 06:42:10 51°14.285 2°55.214 -999 309 11.2 101060 100
2005-10-19 06:42:15 51°14.295 2°55.194 -999 305 11.2 101060 100
2005-10-19 06:42:20 51°14.305 2°55.174 -999 299 11.2 101060 100
2005-10-19 06:42:24 51°14.312 2°55.158 -999 294 11.2 101060 100
2005-10-19 06:42:30 51°14.324 2°55.134 -999 309 11.2 101060 100
2005-10-19 06:42:34 51°14.333 2°55.118 -999 297 11.2 101060 100
2005-10-19 06:42:40 51°14.345 2°55.095 -999 296 11.2 101060 100
2005-10-19 06:42:44 51°14.354 2°55.079 -999 302 11.2 101060 100
2005-10-19 06:42:50 51°14.367 2°55.056 -999 319 11.2 101060 100
2005-10-19 06:42:55 51°14.38 2°55.038 -999 336 11.2 101060 100
2005-10-19 06:42:59 51°14.39 2°55.024 -999 302 11.2 101050 100
2005-10-19 06:43:04 51°14.404 2°55.007 -999 327 11.2 101050 100
2005-10-19 06:43:10 51°14.42 2°54.986 -999 343 11.2 101060 100
2005-10-19 06:43:15 51°14.434 2°54.969 -999 335 11.2 101060 100
2005-10-19 06:43:20 51°14.448 2°54.951 -999 229 11.2 101060 100
2005-10-19 06:43:24 51°14.458 2°54.937 -999 312 11.2 101060 100
2005-10-19 06:43:30 51°14.475 2°54.914 -999 282 11.2 101050 100
2005-10-19 06:43:35 51°14.487 2°54.894 -999 298 11.2 101050 100
2005-10-19 06:43:40 51°14.5 2°54.873 -999 297 11.2 101050 100
2005-10-19 06:43:44 51°14.509 2°54.856 -999 286 11.2 101050 100
2005-10-19 06:43:50 51°14.523 2°54.83 -999 295 11.3 101050 100
2005-10-19 06:43:55 51°14.535 2°54.808 -999 290 11.3 101050 100
2005-10-19 06:44:00 51°14.547 2°54.785 -999 263 11.2 101050 100
2005-10-19 06:44:04 51°14.557 2°54.767 -999 261 11.2 101050 100
2005-10-19 06:44:10 51°14.571 2°54.741 -999 296 11.3 101050 100
2005-10-19 06:44:15 51°14.583 2°54.719 -999 285 11.3 101050 100
2005-10-19 06:44:20 51°14.596 2°54.698 -999 288 11.3 101060 100
2005-10-19 06:44:25 51°14.609 2°54.677 -999 268 11.3 101060 100
2005-10-19 06:44:30 51°14.622 2°54.656 -999 264 11.2 101050 100
2005-10-19 06:44:35 51°14.635 2°54.636 -999 261 11.2 101050 100
2005-10-19 06:44:40 51°14.648 2°54.615 -999 287 11.3 101050 100
2005-10-19 06:44:44 51°14.659 2°54.599 -999 290 11.3 101050 100
2005-10-19 06:44:50 51°14.675 2°54.575 -999 265 11.3 101050 100
2005-10-19 06:44:55 51°14.688 2°54.555 -999 263 11.3 101050 100
2005-10-19 06:45:00 51°14.701 2°54.535 -999 277 11.3 101050 100
2005-10-19 06:45:04 51°14.712 2°54.518 -999 261 11.3 101050 100
2005-10-19 06:45:10 51°14.727 2°54.494 -999 277 11.3 101050 100
2005-10-19 06:45:15 51°14.74 2°54.473 -999 274 11.3 101050 100
2005-10-19 06:45:20 51°14.753 2°54.451 -999 267 11.3 101050 100
2005-10-19 06:45:25 51°14.765 2°54.43 -999 268 11.3 101050 100
2005-10-19 06:45:30 51°14.777 2°54.408 -999 273 11.3 101050 100
2005-10-19 06:45:35 51°14.789 2°54.386 -999 286 11.3 101050 100
2005-10-19 06:45:40 51°14.801 2°54.364 -999 295 11.3 101050 100
2005-10-19 06:45:44 51°14.81 2°54.346 -999 281 11.3 101050 100
2005-10-19 06:45:50 51°14.825 2°54.32 -999 288 11.3 101060 100
2005-10-19 06:45:55 51°14.836 2°54.297 -999 288 11.3 101060 100
2005-10-19 06:46:00 51°14.848 2°54.275 -999 290 11.3 101050 100
2005-10-19 06:46:04 51°14.857 2°54.257 -999 286 11.3 101050 100
2005-10-19 06:46:10 51°14.871 2°54.229 -999 295 11.3 101060 100
2005-10-19 06:46:15 51°14.882 2°54.207 -999 281 11.3 101060 100
2005-10-19 06:46:20 51°14.893 2°54.184 -999 297 11.4 101060 100
2005-10-19 06:46:24 51°14.902 2°54.165 -999 282 11.4 101060 100
2005-10-19 06:46:30 51°14.915 2°54.138 -999 290 11.3 101060 100
2005-10-19 06:46:35 51°14.926 2°54.116 -999 286 11.3 101060 100
2005-10-19 06:46:40 51°14.937 2°54.093 -999 287 11.4 101060 100
2005-10-19 06:46:44 51°14.946 2°54.075 -999 285 11.4 101060 100
2005-10-19 06:46:50 51°14.959 2°54.048 -999 290 11.4 101060 100
2005-10-19 06:46:55 51°14.97 2°54.026 -999 284 11.4 101060 100
2005-10-19 06:47:00 51°14.982 2°54.005 -999 281 11.4 101060 100
2005-10-19 06:47:04 51°14.991 2°53.987 -999 272 11.4 101060 100
2005-10-19 06:47:08 51°15.001 2°53.97 -999 280 11.4 101060 100
2005-10-19 06:47:15 51°15.017 2°53.941 -999 282 11.4 101060 100
2005-10-19 06:47:20 51°15.03 2°53.92 -999 286 11.5 101060 100
2005-10-19 06:47:24 51°15.039 2°53.904 -999 282 11.5 101060 100
2005-10-19 06:47:30 51°15.054 2°53.88 -999 278 11.4 101060 100
2005-10-19 06:47:35 51°15.068 2°53.861 -999 271 11.4 101060 100
2005-10-19 06:47:40 51°15.081 2°53.842 -999 271 11.4 101060 100
2005-10-19 06:47:44 51°15.092 2°53.828 -999 265 11.4 101060 100
2005-10-19 06:47:50 51°15.109 2°53.807 -999 263 11.4 101060 100
2005-10-19 06:47:55 51°15.123 2°53.79 -999 258 11.4 101060 100
2005-10-19 06:48:00 51°15.137 2°53.774 -999 259 11.5 101060 100
2005-10-19 06:48:04 51°15.149 2°53.76 -999 254 11.5 101060 100
2005-10-19 06:48:10 51°15.165 2°53.738 -999 258 11.5 101060 100
2005-10-19 06:48:15 51°15.179 2°53.72 -999 265 11.5 101060 100
2005-10-19 06:48:20 51°15.192 2°53.7 -999 263 11.5 101070 100
2005-10-19 06:48:24 51°15.202 2°53.683 -999 274 11.5 101070 100
2005-10-19 06:48:30 51°15.217 2°53.657 -999 280 11.5 101070 100
2005-10-19 06:48:35 51°15.229 2°53.634 -999 286 11.5 101070 100
2005-10-19 06:48:40 51°15.24 2°53.612 -999 277 11.5 101060 100
2005-10-19 06:48:44 51°15.25 2°53.593 -999 280 11.5 101060 100
2005-10-19 06:48:50 51°15.264 2°53.566 -999 283 11.5 101060 100
2005-10-19 06:48:55 51°15.276 2°53.543 -999 290 11.5 101060 100
2005-10-19 06:49:00 51°15.288 2°53.52 -999 285 11.5 101060 100
2005-10-19 06:49:04 51°15.298 2°53.502 -999 274 11.5 101060 100
2005-10-19 06:49:10 51°15.313 2°53.475 -999 283 11.5 101060 100
2005-10-19 06:49:15 51°15.325 2°53.453 -999 280 11.5 101060 100
2005-10-19 06:49:20 51°15.337 2°53.429 -999 284 11.5 101060 100
2005-10-19 06:49:24 51°15.346 2°53.41 -999 284 11.5 101060 100
2005-10-19 06:49:30 51°15.359 2°53.381 -999 280 11.5 101070 100
2005-10-19 06:49:35 51°15.37 2°53.356 -999 281 11.5 101070 100
2005-10-19 06:49:40 51°15.38 2°53.33 -999 282 11.5 101060 100
2005-10-19 06:49:44 51°15.389 2°53.31 -999 290 11.5 101060 100
2005-10-19 06:49:50 51°15.401 2°53.28 -999 287 11.5 101060 100
2005-10-19 06:49:55 51°15.411 2°53.254 -999 285 11.5 101060 100
2005-10-19 06:50:00 51°15.421 2°53.229 -999 276 11.5 101060 100
2005-10-19 06:50:04 51°15.43 2°53.209 -999 278 11.5 101060 100
2005-10-19 06:50:10 51°15.443 2°53.179 -999 270 11.5 101060 100
2005-10-19 06:50:14 51°15.452 2°53.159 -999 274 11.5 101060 100
2005-10-19 06:50:20 51°15.465 2°53.13 -999 275 11.6 101060 100
2005-10-19 06:50:24 51°15.474 2°53.11 -999 288 11.6 101060 100
2005-10-19 06:50:30 51°15.487 2°53.081 -999 282 11.6 101060 100
2005-10-19 06:50:35 51°15.498 2°53.057 -999 280 11.6 101060 100
2005-10-19 06:50:40 51°15.508 2°53.031 -999 292 11.6 101060 100
2005-10-19 06:50:44 51°15.516 2°53.012 -999 294 11.6 101060 100
2005-10-19 06:50:50 51°15.528 2°52.98 -999 285 11.6 101060 100
2005-10-19 06:50:55 51°15.538 2°52.954 -999 283 11.6 101060 100
2005-10-19 06:51:00 51°15.548 2°52.929 -999 284 11.6 101060 100
2005-10-19 06:51:04 51°15.556 2°52.907 -999 289 11.6 101060 100
2005-10-19 06:51:10 51°15.567 2°52.876 -999 282 11.6 101060 100
2005-10-19 06:51:15 51°15.576 2°52.85 -999 283 11.6 101060 100
2005-10-19 06:51:20 51°15.586 2°52.823 -999 283 11.6 101050 100
2005-10-19 06:51:24 51°15.593 2°52.802 -999 282 11.6 101050 100
2005-10-19 06:51:30 51°15.605 2°52.77 -999 280 11.6 101060 100
2005-10-19 06:51:35 51°15.614 2°52.743 -999 277 11.6 101060 100
2005-10-19 06:51:40 51°15.624 2°52.717 -999 284 11.6 101060 100
2005-10-19 06:51:44 51°15.632 2°52.696 -999 276 11.6 101060 100
2005-10-19 06:51:50 51°15.643 2°52.664 -999 266 11.6 101060 100
2005-10-19 06:51:55 51°15.653 2°52.638 -999 284 11.6 101060 100
2005-10-19 06:52:00 51°15.662 2°52.611 -999 290 11.6 101060 100
2005-10-19 06:52:04 51°15.669 2°52.59 -999 288 11.6 101060 100
2005-10-19 06:52:10 51°15.681 2°52.557 -999 282 11.6 101060 100
2005-10-19 06:52:14 51°15.688 2°52.536 -999 278 11.6 101060 100
2005-10-19 06:52:20 51°15.699 2°52.504 -999 291 11.6 101060 100
2005-10-19 06:52:24 51°15.706 2°52.482 -999 291 11.6 101060 100
2005-10-19 06:52:30 51°15.716 2°52.449 -999 300 11.6 101060 100
2005-10-19 06:52:35 51°15.725 2°52.422 -999 290 11.6 101060 100
2005-10-19 06:52:39 51°15.733 2°52.401 -999 291 11.6 101060 100
2005-10-19 06:52:44 51°15.742 2°52.374 -999 281 11.6 101060 100
2005-10-19 06:52:50 51°15.753 2°52.342 -999 278 11.6 101070 100
2005-10-19 06:52:55 51°15.762 2°52.316 -999 282 11.6 101070 100
2005-10-19 06:53:00 51°15.771 2°52.289 -999 280 11.7 101060 100
2005-10-19 06:53:04 51°15.779 2°52.268 -999 288 11.7 101060 100
2005-10-19 06:53:10 51°15.79 2°52.235 -999 288 11.7 101070 100
2005-10-19 06:53:15 51°15.799 2°52.209 -999 286 11.7 101070 100
2005-10-19 06:53:20 51°15.808 2°52.181 -999 287 11.6 101060 100
2005-10-19 06:53:24 51°15.815 2°52.16 -999 296 11.6 101060 100
2005-10-19 06:53:30 51°15.826 2°52.128 -999 289 11.7 101060 100
2005-10-19 06:53:35 51°15.834 2°52.101 -999 296 11.7 101060 100
2005-10-19 06:53:40 51°15.843 2°52.073 -999 289 11.7 101070 100
2005-10-19 06:53:44 51°15.849 2°52.051 -999 286 11.7 101070 100
2005-10-19 06:53:50 51°15.859 2°52.019 -999 288 11.7 101060 100
2005-10-19 06:53:55 51°15.867 2°51.99 -999 287 11.7 101060 100
2005-10-19 06:54:00 51°15.876 2°51.963 -999 281 11.7 101060 100
2005-10-19 06:54:04 51°15.882 2°51.941 -999 286 11.7 101060 100
2005-10-19 06:54:10 51°15.892 2°51.907 -999 286 11.7 101060 100
2005-10-19 06:54:15 51°15.9 2°51.88 -999 296 11.7 101060 100
2005-10-19 06:54:20 51°15.908 2°51.853 -999 289 11.7 101070 100
2005-10-19 06:54:24 51°15.915 2°51.831 -999 299 11.7 101070 100
2005-10-19 06:54:30 51°15.926 2°51.797 -999 284 11.7 101070 100
2005-10-19 06:54:35 51°15.934 2°51.77 -999 288 11.7 101070 100
2005-10-19 06:54:40 51°15.942 2°51.743 -999 288 11.7 101060 100
2005-10-19 06:54:44 51°15.949 2°51.72 -999 294 11.7 101060 100
2005-10-19 06:54:50 51°15.959 2°51.687 -999 292 11.7 101060 100
2005-10-19 06:54:55 51°15.967 2°51.659 -999 294 11.7 101060 100
2005-10-19 06:55:00 51°15.976 2°51.632 -999 289 11.7 101070 100
2005-10-19 06:55:04 51°15.982 2°51.61 -999 287 11.7 101070 100
2005-10-19 06:55:10 51°15.992 2°51.577 -999 284 11.7 101070 100
2005-10-19 06:55:15 51°16 2°51.549 -999 294 11.7 101070 100
2005-10-19 06:55:20 51°16.009 2°51.521 -999 293 11.7 101070 100
2005-10-19 06:55:24 51°16.016 2°51.499 -999 288 11.7 101070 100
2005-10-19 06:55:30 51°16.026 2°51.466 -999 282 11.7 101080 100
2005-10-19 06:55:35 51°16.034 2°51.439 -999 280 11.7 101080 100
2005-10-19 06:55:40 51°16.043 2°51.412 -999 282 11.7 101060 100
2005-10-19 06:55:44 51°16.05 2°51.39 -999 287 11.7 101060 100
2005-10-19 06:55:50 51°16.06 2°51.356 -999 300 11.7 101070 100
2005-10-19 06:55:55 51°16.068 2°51.329 -999 293 11.7 101070 100
2005-10-19 06:56:00 51°16.077 2°51.302 -999 286 11.7 101060 100
2005-10-19 06:56:04 51°16.083 2°51.28 -999 282 11.7 101060 100
2005-10-19 06:56:10 51°16.094 2°51.247 -999 294 11.7 101070 100
2005-10-19 06:56:15 51°16.102 2°51.22 -999 283 11.7 101070 100
2005-10-19 06:56:20 51°16.111 2°51.192 -999 290 11.7 101070 100
2005-10-19 06:56:24 51°16.118 2°51.17 -999 287 11.7 101070 100
2005-10-19 06:56:30 51°16.127 2°51.137 -999 284 11.7 101060 100
2005-10-19 06:56:35 51°16.136 2°51.11 -999 286 11.7 101060 100
2005-10-19 06:56:40 51°16.144 2°51.083 -999 283 11.7 101060 100
2005-10-19 06:56:44 51°16.151 2°51.061 -999 291 11.7 101060 100
2005-10-19 06:56:50 51°16.161 2°51.028 -999 290 11.7 101060 100
2005-10-19 06:56:55 51°16.169 2°51.002 -999 292 11.7 101060 100
2005-10-19 06:57:00 51°16.178 2°50.975 -999 288 11.7 101060 100
2005-10-19 06:57:04 51°16.185 2°50.953 -999 286 11.7 101060 100
2005-10-19 06:57:10 51°16.195 2°50.922 -999 283 11.7 101060 100
2005-10-19 06:57:15 51°16.203 2°50.895 -999 289 11.7 101060 100
2005-10-19 06:57:20 51°16.212 2°50.868 -999 288 11.8 101070 100
2005-10-19 06:57:24 51°16.219 2°50.847 -999 303 11.8 101070 100
2005-10-19 06:57:30 51°16.229 2°50.815 -999 298 11.8 101060 100
2005-10-19 06:57:35 51°16.237 2°50.789 -999 295 11.8 101060 100
2005-10-19 06:57:40 51°16.245 2°50.762 -999 295 11.8 101060 100
2005-10-19 06:57:44 51°16.252 2°50.741 -999 287 11.8 101060 100
2005-10-19 06:57:50 51°16.262 2°50.709 -999 289 11.8 101070 100
2005-10-19 06:57:55 51°16.271 2°50.683 -999 287 11.8 101070 100
2005-10-19 06:58:00 51°16.279 2°50.656 -999 292 11.8 101070 100
2005-10-19 06:58:05 51°16.287 2°50.63 -999 291 11.8 101070 100
2005-10-19 06:58:10 51°16.295 2°50.604 -999 294 11.8 101060 100
2005-10-19 06:58:15 51°16.304 2°50.577 -999 289 11.8 101060 100
2005-10-19 06:58:20 51°16.311 2°50.55 -999 284 11.8 101070 100
2005-10-19 06:58:24 51°16.317 2°50.529 -999 290 11.8 101070 100
2005-10-19 06:58:30 51°16.327 2°50.497 -999 298 11.8 101070 100
2005-10-19 06:58:35 51°16.335 2°50.472 -999 289 11.8 101070 100
2005-10-19 06:58:40 51°16.343 2°50.447 -999 284 11.8 101060 100
2005-10-19 06:58:44 51°16.35 2°50.426 -999 287 11.8 101060 100
2005-10-19 06:58:50 51°16.361 2°50.395 -999 282 11.8 101060 100
2005-10-19 06:58:55 51°16.37 2°50.37 -999 285 11.8 101060 100
2005-10-19 06:59:00 51°16.38 2°50.345 -999 292 11.9 101070 100
2005-10-19 06:59:04 51°16.389 2°50.324 -999 282 11.9 101070 100
2005-10-19 06:59:10 51°16.401 2°50.295 -999 286 11.8 101060 100
2005-10-19 06:59:15 51°16.411 2°50.268 -999 278 11.8 101060 100
2005-10-19 06:59:20 51°16.42 2°50.241 -999 286 11.8 101070 100
2005-10-19 06:59:24 51°16.428 2°50.219 -999 280 11.8 101070 100
2005-10-19 06:59:30 51°16.439 2°50.187 -999 285 11.8 101060 100
2005-10-19 06:59:35 51°16.447 2°50.16 -999 297 11.8 101060 100
2005-10-19 06:59:40 51°16.456 2°50.132 -999 296 11.8 101060 100
2005-10-19 06:59:44 51°16.463 2°50.111 -999 290 11.8 101060 100
2005-10-19 06:59:50 51°16.473 2°50.078 -999 293 11.8 101070 100
2005-10-19 06:59:55 51°16.482 2°50.051 -999 285 11.8 101070 100
2005-10-19 07:00:00 51°16.491 2°50.024 -999 286 11.8 101060 100
2005-10-19 07:00:04 51°16.498 2°50.003 -999 288 11.8 101060 100
2005-10-19 07:00:10 51°16.509 2°49.972 -999 291 11.8 101060 100
2005-10-19 07:00:15 51°16.519 2°49.945 -999 293 11.8 101060 100
2005-10-19 07:00:20 51°16.528 2°49.92 -999 282 11.8 101060 100
2005-10-19 07:00:24 51°16.536 2°49.899 -999 291 11.8 101060 100
2005-10-19 07:00:30 51°16.548 2°49.869 -999 281 11.8 101060 100
2005-10-19 07:00:35 51°16.557 2°49.843 -999 283 11.8 101060 100
2005-10-19 07:00:40 51°16.568 2°49.817 -999 295 11.9 101060 100
2005-10-19 07:00:44 51°16.575 2°49.796 -999 285 11.9 101060 100
2005-10-19 07:00:50 51°16.588 2°49.766 -999 279 11.9 101060 100
2005-10-19 07:00:55 51°16.6 2°49.744 -999 275 11.9 101060 100
2005-10-19 07:01:00 51°16.613 2°49.723 -999 263 11.9 101060 100
2005-10-19 07:01:04 51°16.625 2°49.709 -999 257 11.8 101060 100
2005-10-19 07:01:10 51°16.642 2°49.69 -999 259 11.8 101060 100
2005-10-19 07:01:15 51°16.658 2°49.677 -999 228 11.8 101060 100
2005-10-19 07:01:20 51°16.674 2°49.668 -999 215 11.8 101060 100
2005-10-19 07:01:24 51°16.688 2°49.662 -999 208 11.8 101060 100
2005-10-19 07:01:30 51°16.707 2°49.653 -999 215 11.8 101070 100
2005-10-19 07:01:35 51°16.724 2°49.648 -999 90 11.8 101070 100
2005-10-19 07:01:40 51°16.741 2°49.643 -999 98 11.8 101070 100
2005-10-19 07:01:44 51°16.754 2°49.64 -999 139 11.8 101070 100
2005-10-19 07:01:50 51°16.775 2°49.635 -999 143 11.9 101070 100
2005-10-19 07:01:55 51°16.791 2°49.633 -999 156 11.9 101070 100
2005-10-19 07:02:00 51°16.808 2°49.63 -999 148 11.9 101070 100
2005-10-19 07:02:04 51°16.821 2°49.628 -999 151 11.9 101070 100
2005-10-19 07:02:10 51°16.841 2°49.625 -999 153 11.9 101070 100
2005-10-19 07:02:15 51°16.858 2°49.624 -999 144 11.9 101070 100
2005-10-19 07:02:20 51°16.874 2°49.623 -999 125 11.9 101070 100
2005-10-19 07:02:24 51°16.887 2°49.623 -999 132 11.9 101070 100
2005-10-19 07:02:30 51°16.907 2°49.625 -999 138 11.9 101070 100
2005-10-19 07:02:35 51°16.923 2°49.626 -999 136 11.9 101070 100
2005-10-19 07:02:40 51°16.939 2°49.629 -999 132 11.9 101070 100
2005-10-19 07:02:44 51°16.952 2°49.632 -999 120 11.9 101070 100
2005-10-19 07:02:50 51°16.972 2°49.638 -999 127 11.9 101070 100
2005-10-19 07:02:55 51°16.987 2°49.644 -999 114 11.9 101070 100
2005-10-19 07:03:00 51°17.004 2°49.652 -999 102 11.9 101070 100
2005-10-19 07:03:04 51°17.016 2°49.658 -999 99 11.9 101070 100
2005-10-19 07:03:10 51°17.035 2°49.668 -999 104 11.9 101070 100
2005-10-19 07:03:15 51°17.051 2°49.676 -999 121 11.9 101070 100
2005-10-19 07:03:20 51°17.066 2°49.686 -999 112 11.9 101070 100
2005-10-19 07:03:24 51°17.079 2°49.693 -999 89 11.9 101060 100
2005-10-19 07:03:30 51°17.098 2°49.706 -999 88 11.9 101060 100
2005-10-19 07:03:35 51°17.114 2°49.716 -999 88 11.9 101060 100
2005-10-19 07:03:40 51°17.13 2°49.726 -999 95 11.9 101060 100
2005-10-19 07:03:44 51°17.142 2°49.734 -999 104 11.9 101060 100
2005-10-19 07:03:50 51°17.161 2°49.746 -999 84 11.9 101060 100
2005-10-19 07:03:55 51°17.177 2°49.757 -999 101 11.9 101060 100
2005-10-19 07:04:00 51°17.192 2°49.767 -999 104 11.9 101060 100
2005-10-19 07:04:04 51°17.204 2°49.775 -999 98 11.9 101060 100
2005-10-19 07:04:10 51°17.222 2°49.788 -999 94 11.9 101060 100
2005-10-19 07:04:15 51°17.238 2°49.8 -999 101 11.9 101060 100
2005-10-19 07:04:20 51°17.253 2°49.811 -999 94 12 101070 100
2005-10-19 07:04:24 51°17.265 2°49.821 -999 109 12 101070 100
2005-10-19 07:04:30 51°17.284 2°49.834 -999 109 11.9 101070 100
2005-10-19 07:04:35 51°17.299 2°49.845 -999 103 11.9 101070 100
2005-10-19 07:04:40 51°17.315 2°49.856 -999 106 11.9 101060 100
2005-10-19 07:04:44 51°17.327 2°49.864 -999 98 11.9 101060 100
2005-10-19 07:04:50 51°17.346 2°49.878 -999 96 11.9 101060 100
2005-10-19 07:04:55 51°17.361 2°49.89 -999 92 11.9 101060 100
2005-10-19 07:05:00 51°17.376 2°49.902 -999 89 11.9 101070 100
2005-10-19 07:05:04 51°17.387 2°49.913 -999 96 11.9 101070 100
2005-10-19 07:05:10 51°17.404 2°49.929 -999 93 11.9 101060 100
2005-10-19 07:05:15 51°17.418 2°49.943 -999 89 11.9 101060 100
2005-10-19 07:05:20 51°17.433 2°49.958 -999 93 12 101060 100
2005-10-19 07:05:24 51°17.444 2°49.969 -999 91 12 101060 100
2005-10-19 07:05:30 51°17.461 2°49.987 -999 98 12 101060 100
2005-10-19 07:05:35 51°17.475 2°50.001 -999 94 12 101060 100
2005-10-19 07:05:40 51°17.489 2°50.015 -999 113 12 101060 100
2005-10-19 07:05:44 51°17.5 2°50.027 -999 108 12 101060 100
2005-10-19 07:05:50 51°17.517 2°50.044 -999 109 12 101060 100
2005-10-19 07:05:55 51°17.531 2°50.059 -999 109 12 101060 100
2005-10-19 07:06:00 51°17.545 2°50.073 -999 106 12 101060 100
2005-10-19 07:06:04 51°17.557 2°50.084 -999 95 12 101060 100
2005-10-19 07:06:10 51°17.574 2°50.101 -999 88 11.9 101060 100
2005-10-19 07:06:15 51°17.587 2°50.115 -999 89 11.9 101060 100
2005-10-19 07:06:20 51°17.601 2°50.129 -999 71 11.9 101050 100
2005-10-19 07:06:24 51°17.613 2°50.14 -999 91 11.9 101050 100
2005-10-19 07:06:30 51°17.63 2°50.156 -999 84 11.9 101060 100
2005-10-19 07:06:35 51°17.644 2°50.17 -999 80 11.9 101060 100
2005-10-19 07:06:40 51°17.658 2°50.183 -999 91 12 101060 100
2005-10-19 07:06:44 51°17.67 2°50.195 -999 96 12 101060 100
2005-10-19 07:06:50 51°17.687 2°50.211 -999 92 12 101060 100
2005-10-19 07:06:55 51°17.701 2°50.225 -999 92 12 101060 100
2005-10-19 07:07:00 51°17.715 2°50.238 -999 90 12 101060 100
2005-10-19 07:07:04 51°17.727 2°50.25 -999 96 12 101060 100
2005-10-19 07:07:08 51°17.738 2°50.261 -999 107 12 101060 100
2005-10-19 07:07:15 51°17.758 2°50.28 -999 105 12 101060 100
2005-10-19 07:07:20 51°17.772 2°50.293 -999 82 12 101050 100
2005-10-19 07:07:24 51°17.784 2°50.304 -999 86 12 101050 100
2005-10-19 07:07:30 51°17.801 2°50.321 -999 91 11.9 101070 100
2005-10-19 07:07:35 51°17.815 2°50.334 -999 94 11.9 101070 100
2005-10-19 07:07:40 51°17.829 2°50.347 -999 95 11.9 101060 100
2005-10-19 07:07:44 51°17.841 2°50.358 -999 91 11.9 101060 100
2005-10-19 07:07:50 51°17.858 2°50.375 -999 101 11.9 101060 100
2005-10-19 07:07:55 51°17.872 2°50.388 -999 93 11.9 101060 100
2005-10-19 07:08:00 51°17.886 2°50.402 -999 88 11.9 101070 100
2005-10-19 07:08:04 51°17.897 2°50.413 -999 97 11.9 101070 100
2005-10-19 07:08:10 51°17.914 2°50.43 -999 99 12 101060 100
2005-10-19 07:08:15 51°17.928 2°50.444 -999 100 12 101060 100
2005-10-19 07:08:19 51°17.94 2°50.454 -999 100 12 101060 100
2005-10-19 07:08:24 51°17.954 2°50.468 -999 94 12 101060 100
2005-10-19 07:08:30 51°17.971 2°50.484 -999 84 12 101060 100
2005-10-19 07:08:35 51°17.985 2°50.498 -999 82 12 101060 100
2005-10-19 07:08:40 51°18 2°50.511 -999 91 11.9 101060 100
2005-10-19 07:08:44 51°18.011 2°50.522 -999 84 11.9 101060 100
2005-10-19 07:08:50 51°18.028 2°50.538 -999 86 11.9 101070 100
2005-10-19 07:08:55 51°18.042 2°50.552 -999 101 11.9 101070 100
2005-10-19 07:09:00 51°18.057 2°50.565 -999 102 11.9 101060 100
2005-10-19 07:09:04 51°18.068 2°50.576 -999 102 11.9 101060 100
2005-10-19 07:09:10 51°18.085 2°50.592 -999 108 11.9 101060 100
2005-10-19 07:09:15 51°18.1 2°50.605 -999 99 11.9 101060 100
2005-10-19 07:09:20 51°18.114 2°50.618 -999 86 11.9 101070 100
2005-10-19 07:09:24 51°18.126 2°50.629 -999 94 11.9 101070 100
2005-10-19 07:09:30 51°18.143 2°50.645 -999 90 11.9 101060 100
2005-10-19 07:09:35 51°18.157 2°50.658 -999 90 11.9 101060 100
2005-10-19 07:09:40 51°18.171 2°50.672 -999 93 11.9 101060 100
2005-10-19 07:09:44 51°18.182 2°50.683 -999 87 11.9 101060 100
2005-10-19 07:09:50 51°18.199 2°50.699 -999 94 11.9 101070 100
2005-10-19 07:09:55 51°18.213 2°50.713 -999 92 11.9 101070 100
2005-10-19 07:10:00 51°18.228 2°50.727 -999 84 12 101060 100
2005-10-19 07:10:04 51°18.239 2°50.737 -999 87 12 101060 100
2005-10-19 07:10:10 51°18.256 2°50.754 -999 100 11.9 101060 100
2005-10-19 07:10:15 51°18.27 2°50.767 -999 102 11.9 101060 100
2005-10-19 07:10:20 51°18.285 2°50.78 -999 95 11.9 101060 100
2005-10-19 07:10:25 51°18.298 2°50.794 -999 101 11.9 101060 100
2005-10-19 07:10:30 51°18.313 2°50.808 -999 90 11.9 101070 100
2005-10-19 07:10:35 51°18.327 2°50.821 -999 92 11.9 101070 100
2005-10-19 07:10:40 51°18.341 2°50.835 -999 95 11.9 101070 100
2005-10-19 07:10:44 51°18.353 2°50.845 -999 89 11.9 101070 100
2005-10-19 07:10:50 51°18.369 2°50.861 -999 103 11.9 101070 100
2005-10-19 07:10:55 51°18.384 2°50.874 -999 97 11.9 101070 100
2005-10-19 07:11:00 51°18.398 2°50.888 -999 94 11.9 101070 100
2005-10-19 07:11:05 51°18.412 2°50.901 -999 102 11.9 101070 100
2005-10-19 07:11:10 51°18.426 2°50.914 -999 84 12 101070 100
2005-10-19 07:11:15 51°18.441 2°50.927 -999 98 12 101070 100
2005-10-19 07:11:20 51°18.455 2°50.942 -999 103 12 101070 100
2005-10-19 07:11:24 51°18.466 2°50.952 -999 102 12 101070 100
2005-10-19 07:11:30 51°18.483 2°50.969 -999 107 11.9 101070 100
2005-10-19 07:11:35 51°18.497 2°50.982 -999 106 11.9 101070 100
2005-10-19 07:11:40 51°18.511 2°50.995 -999 105 12 101060 100
2005-10-19 07:11:44 51°18.523 2°51.005 -999 107 12 101060 100
2005-10-19 07:11:50 51°18.54 2°51.021 -999 93 11.9 101060 100
2005-10-19 07:11:55 51°18.555 2°51.033 -999 101 11.9 101060 100
2005-10-19 07:12:00 51°18.569 2°51.047 -999 101 11.9 101060 100
2005-10-19 07:12:04 51°18.581 2°51.057 -999 102 11.9 101060 100
2005-10-19 07:12:10 51°18.598 2°51.074 -999 93 12 101060 100
2005-10-19 07:12:15 51°18.612 2°51.087 -999 102 12 101060 100
2005-10-19 07:12:20 51°18.626 2°51.101 -999 95 12 101070 100
2005-10-19 07:12:24 51°18.637 2°51.111 -999 95 12 101070 100
2005-10-19 07:12:30 51°18.654 2°51.126 -999 102 11.9 101070 100
2005-10-19 07:12:35 51°18.669 2°51.14 -999 109 11.9 101070 100
2005-10-19 07:12:40 51°18.683 2°51.153 -999 100 11.9 101060 100
2005-10-19 07:12:44 51°18.694 2°51.163 -999 103 11.9 101060 100
2005-10-19 07:12:50 51°18.711 2°51.179 -999 102 11.9 101070 100
2005-10-19 07:12:55 51°18.726 2°51.192 -999 104 11.9 101070 100
2005-10-19 07:13:00 51°18.74 2°51.205 -999 92 11.9 101070 100
2005-10-19 07:13:04 51°18.751 2°51.216 -999 104 11.9 101070 100
2005-10-19 07:13:10 51°18.768 2°51.231 -999 97 11.9 101060 100
2005-10-19 07:13:15 51°18.783 2°51.245 -999 92 11.9 101060 100
2005-10-19 07:13:20 51°18.797 2°51.258 -999 96 12 101060 100
2005-10-19 07:13:24 51°18.808 2°51.268 -999 97 12 101060 100
2005-10-19 07:13:30 51°18.826 2°51.284 -999 100 12 101060 100
2005-10-19 07:13:35 51°18.84 2°51.297 -999 99 12 101060 100
2005-10-19 07:13:40 51°18.854 2°51.309 -999 101 11.9 101060 100
2005-10-19 07:13:44 51°18.865 2°51.32 -999 107 11.9 101060 100
2005-10-19 07:13:50 51°18.883 2°51.335 -999 106 11.9 101060 100
2005-10-19 07:13:55 51°18.897 2°51.348 -999 100 11.9 101060 100
2005-10-19 07:14:00 51°18.912 2°51.361 -999 93 11.9 101060 100
2005-10-19 07:14:04 51°18.923 2°51.371 -999 97 11.9 101060 100
2005-10-19 07:14:10 51°18.94 2°51.386 -999 101 11.9 101060 100
2005-10-19 07:14:15 51°18.954 2°51.4 -999 101 11.9 101060 100
2005-10-19 07:14:20 51°18.969 2°51.412 -999 107 11.9 101070 100
2005-10-19 07:14:24 51°18.98 2°51.423 -999 114 11.9 101070 100
2005-10-19 07:14:30 51°18.996 2°51.438 -999 108 12 101070 100
2005-10-19 07:14:35 51°19.01 2°51.452 -999 116 12 101070 100
2005-10-19 07:14:40 51°19.025 2°51.465 -999 121 12 101060 100
2005-10-19 07:14:44 51°19.036 2°51.476 -999 121 12 101060 100
2005-10-19 07:14:50 51°19.053 2°51.491 -999 118 11.9 101070 100
2005-10-19 07:14:55 51°19.067 2°51.503 -999 109 11.9 101070 100
2005-10-19 07:15:00 51°19.082 2°51.516 -999 102 11.9 101060 100
2005-10-19 07:15:05 51°19.096 2°51.529 -999 106 11.9 101060 100
2005-10-19 07:15:10 51°19.11 2°51.542 -999 102 11.9 101070 100
2005-10-19 07:15:15 51°19.124 2°51.555 -999 101 11.9 101070 100
2005-10-19 07:15:20 51°19.138 2°51.567 -999 101 12 101070 100
2005-10-19 07:15:24 51°19.15 2°51.577 -999 106 12 101070 100
2005-10-19 07:15:30 51°19.167 2°51.593 -999 117 12 101070 100
2005-10-19 07:15:35 51°19.181 2°51.606 -999 108 12 101070 100
2005-10-19 07:15:40 51°19.195 2°51.619 -999 104 12 101060 100
2005-10-19 07:15:44 51°19.206 2°51.629 -999 110 12 101060 100
2005-10-19 07:15:50 51°19.224 2°51.645 -999 120 12 101060 100
2005-10-19 07:15:55 51°19.238 2°51.658 -999 114 12 101060 100
2005-10-19 07:16:00 51°19.252 2°51.671 -999 123 12 101060 100
2005-10-19 07:16:04 51°19.264 2°51.682 -999 121 12 101060 100
2005-10-19 07:16:10 51°19.28 2°51.697 -999 105 12 101060 100
2005-10-19 07:16:14 51°19.292 2°51.707 -999 110 12 101060 100
2005-10-19 07:16:20 51°19.309 2°51.722 -999 106 12.1 101070 100
2005-10-19 07:16:24 51°19.32 2°51.732 -999 118 12.1 101070 100
2005-10-19 07:16:30 51°19.337 2°51.747 -999 115 12.1 101070 100
2005-10-19 07:16:35 51°19.352 2°51.76 -999 102 12.1 101070 100
2005-10-19 07:16:40 51°19.366 2°51.774 -999 113 12.1 101060 100
2005-10-19 07:16:44 51°19.377 2°51.785 -999 113 12.1 101060 100
2005-10-19 07:16:50 51°19.394 2°51.801 -999 112 12.1 101060 100
2005-10-19 07:16:55 51°19.407 2°51.815 -999 104 12.1 101060 100
2005-10-19 07:17:00 51°19.421 2°51.83 -999 109 12.1 101060 100
2005-10-19 07:17:04 51°19.432 2°51.841 -999 116 12.1 101060 100
2005-10-19 07:17:10 51°19.448 2°51.858 -999 123 12.1 101060 100
2005-10-19 07:17:15 51°19.462 2°51.873 -999 120 12.1 101060 100
2005-10-19 07:17:20 51°19.476 2°51.887 -999 110 12.1 101070 100
2005-10-19 07:17:24 51°19.487 2°51.899 -999 100 12.1 101070 100
2005-10-19 07:17:30 51°19.504 2°51.915 -999 104 12.1 101060 100
2005-10-19 07:17:35 51°19.517 2°51.93 -999 106 12.1 101060 100
2005-10-19 07:17:40 51°19.531 2°51.944 -999 109 12.1 101060 100
2005-10-19 07:17:44 51°19.542 2°51.956 -999 98 12.1 101060 100
2005-10-19 07:17:50 51°19.558 2°51.972 -999 81 12.1 101060 100
2005-10-19 07:17:55 51°19.572 2°51.986 -999 108 12.1 101060 100
2005-10-19 07:18:00 51°19.586 2°52 -999 106 12.1 101060 100
2005-10-19 07:18:04 51°19.597 2°52.011 -999 111 12.1 101060 100
2005-10-19 07:18:10 51°19.613 2°52.029 -999 109 12.1 101060 100
2005-10-19 07:18:15 51°19.627 2°52.042 -999 101 12.1 101060 100
2005-10-19 07:18:20 51°19.641 2°52.057 -999 98 12.1 101050 100
2005-10-19 07:18:24 51°19.652 2°52.068 -999 104 12.1 101050 100
2005-10-19 07:18:30 51°19.668 2°52.086 -999 116 12.1 101060 100
2005-10-19 07:18:35 51°19.682 2°52.099 -999 100 12.1 101060 100
2005-10-19 07:18:40 51°19.696 2°52.113 -999 106 12.1 101070 100
2005-10-19 07:18:44 51°19.707 2°52.124 -999 98 12.1 101070 100
2005-10-19 07:18:50 51°19.723 2°52.14 -999 103 12.1 101060 100
2005-10-19 07:18:55 51°19.737 2°52.155 -999 107 12.1 101060 100
2005-10-19 07:19:00 51°19.751 2°52.169 -999 100 12.1 101060 100
2005-10-19 07:19:04 51°19.762 2°52.181 -999 103 12.1 101060 100
2005-10-19 07:19:10 51°19.779 2°52.198 -999 99 12 101060 100
2005-10-19 07:19:15 51°19.792 2°52.212 -999 106 12 101060 100
2005-10-19 07:19:20 51°19.806 2°52.226 -999 103 12.1 101060 100
2005-10-19 07:19:24 51°19.817 2°52.238 -999 106 12.1 101060 100
2005-10-19 07:19:30 51°19.834 2°52.254 -999 110 12 101060 100
2005-10-19 07:19:35 51°19.848 2°52.269 -999 102 12 101060 100
2005-10-19 07:19:40 51°19.862 2°52.282 -999 96 12.1 101060 100
2005-10-19 07:19:44 51°19.872 2°52.294 -999 105 12.1 101060 100
2005-10-19 07:19:50 51°19.889 2°52.31 -999 108 12 101050 100
2005-10-19 07:19:55 51°19.903 2°52.324 -999 103 12 101050 100
2005-10-19 07:20:00 51°19.916 2°52.339 -999 109 12.1 101050 100
2005-10-19 07:20:04 51°19.927 2°52.35 -999 103 12.1 101050 100
2005-10-19 07:20:10 51°19.943 2°52.367 -999 100 12.1 101060 100
2005-10-19 07:20:15 51°19.957 2°52.381 -999 103 12.1 101060 100
2005-10-19 07:20:20 51°19.971 2°52.394 -999 110 12 101060 100
2005-10-19 07:20:24 51°19.982 2°52.405 -999 106 12 101060 100
2005-10-19 07:20:30 51°19.998 2°52.422 -999 101 12 101060 100
2005-10-19 07:20:35 51°20.012 2°52.436 -999 110 12 101060 100
2005-10-19 07:20:40 51°20.026 2°52.449 -999 108 12.1 101050 100
2005-10-19 07:20:44 51°20.037 2°52.461 -999 97 12.1 101050 100
2005-10-19 07:20:50 51°20.053 2°52.478 -999 106 12.1 101060 100
2005-10-19 07:20:55 51°20.067 2°52.492 -999 104 12.1 101060 100
2005-10-19 07:21:00 51°20.08 2°52.506 -999 106 12 101050 100
2005-10-19 07:21:04 51°20.091 2°52.517 -999 106 12 101050 100
2005-10-19 07:21:10 51°20.108 2°52.533 -999 108 12.1 101060 100
2005-10-19 07:21:15 51°20.121 2°52.546 -999 107 12.1 101060 100
2005-10-19 07:21:20 51°20.135 2°52.559 -999 97 12.1 101060 100
2005-10-19 07:21:24 51°20.146 2°52.57 -999 98 12.1 101060 100
2005-10-19 07:21:30 51°20.163 2°52.587 -999 100 12.1 101060 100
2005-10-19 07:21:35 51°20.177 2°52.6 -999 105 12.1 101060 100
2005-10-19 07:21:40 51°20.19 2°52.614 -999 109 12.1 101060 100
2005-10-19 07:21:44 51°20.201 2°52.623 -999 113 12.1 101060 100
2005-10-19 07:21:50 51°20.218 2°52.64 -999 113 12.1 101060 100
2005-10-19 07:21:55 51°20.232 2°52.653 -999 106 12.1 101060 100
2005-10-19 07:22:00 51°20.246 2°52.667 -999 106 12.1 101060 100
2005-10-19 07:22:04 51°20.257 2°52.677 -999 111 12.1 101060 100
2005-10-19 07:22:10 51°20.274 2°52.693 -999 100 12.1 101060 100
2005-10-19 07:22:15 51°20.288 2°52.706 -999 88 12.1 101060 100
2005-10-19 07:22:20 51°20.301 2°52.72 -999 93 12.1 101060 100
2005-10-19 07:22:24 51°20.313 2°52.73 -999 106 12.1 101060 100
2005-10-19 07:22:30 51°20.329 2°52.745 -999 111 12.1 101060 100
2005-10-19 07:22:35 51°20.344 2°52.758 -999 111 12.1 101060 100
2005-10-19 07:22:40 51°20.358 2°52.77 -999 104 12.1 101060 100
2005-10-19 07:22:44 51°20.369 2°52.781 -999 113 12.1 101060 100
2005-10-19 07:22:50 51°20.386 2°52.795 -999 122 12.1 101050 100
2005-10-19 07:22:55 51°20.4 2°52.808 -999 100 12.1 101050 100
2005-10-19 07:23:00 51°20.414 2°52.82 -999 111 12.1 101060 100
2005-10-19 07:23:04 51°20.425 2°52.83 -999 104 12.1 101060 100
2005-10-19 07:23:10 51°20.442 2°52.845 -999 111 12.1 101060 100
2005-10-19 07:23:15 51°20.456 2°52.858 -999 104 12.1 101060 100
2005-10-19 07:23:20 51°20.47 2°52.87 -999 96 12.1 101050 100
2005-10-19 07:23:25 51°20.484 2°52.882 -999 118 12.1 101050 100
2005-10-19 07:23:30 51°20.499 2°52.894 -999 114 12.1 101060 100
2005-10-19 07:23:35 51°20.514 2°52.904 -999 113 12.1 101060 100
2005-10-19 07:23:40 51°20.528 2°52.915 -999 109 12.1 101060 100
2005-10-19 07:23:44 51°20.541 2°52.923 -999 103 12.1 101060 100
2005-10-19 07:23:50 51°20.559 2°52.934 -999 109 12.1 101060 100
2005-10-19 07:23:55 51°20.574 2°52.942 -999 116 12.1 101060 100
2005-10-19 07:24:00 51°20.59 2°52.951 -999 120 12.1 101060 100
2005-10-19 07:24:04 51°20.603 2°52.957 -999 125 12.1 101060 100
2005-10-19 07:24:10 51°20.621 2°52.966 -999 135 12.1 101060 100
2005-10-19 07:24:15 51°20.637 2°52.974 -999 130 12.1 101060 100
2005-10-19 07:24:20 51°20.653 2°52.982 -999 132 12.1 101060 100
2005-10-19 07:24:24 51°20.665 2°52.988 -999 126 12.1 101060 100
2005-10-19 07:24:30 51°20.684 2°52.998 -999 131 12.1 101060 100
2005-10-19 07:24:35 51°20.7 2°53.006 -999 137 12.1 101060 100
2005-10-19 07:24:40 51°20.715 2°53.014 -999 143 12.1 101060 100
2005-10-19 07:24:44 51°20.728 2°53.021 -999 134 12.1 101060 100
2005-10-19 07:24:50 51°20.746 2°53.031 -999 143 12.1 101060 100
2005-10-19 07:24:55 51°20.762 2°53.039 -999 152 12.1 101060 100
2005-10-19 07:25:00 51°20.778 2°53.047 -999 141 12.1 101070 100
2005-10-19 07:25:04 51°20.79 2°53.053 -999 135 12.1 101070 100
2005-10-19 07:25:10 51°20.809 2°53.063 -999 152 12.1 101060 100
2005-10-19 07:25:15 51°20.825 2°53.07 -999 138 12.1 101060 100
2005-10-19 07:25:20 51°20.84 2°53.079 -999 104 12.1 101060 100
2005-10-19 07:25:24 51°20.853 2°53.085 -999 126 12.1 101060 100
2005-10-19 07:25:30 51°20.872 2°53.094 -999 130 12.1 101060 100
2005-10-19 07:25:35 51°20.887 2°53.102 -999 127 12.1 101060 100
2005-10-19 07:25:40 51°20.903 2°53.11 -999 122 12.1 101060 100
2005-10-19 07:25:44 51°20.915 2°53.117 -999 120 12.1 101060 100
2005-10-19 07:25:50 51°20.934 2°53.127 -999 131 12.1 101060 100
2005-10-19 07:25:55 51°20.95 2°53.134 -999 132 12.1 101060 100
2005-10-19 07:26:00 51°20.965 2°53.142 -999 135 12.2 101060 100
2005-10-19 07:26:04 51°20.978 2°53.148 -999 139 12.2 101060 100
2005-10-19 07:26:10 51°20.997 2°53.157 -999 135 12.2 101060 100
2005-10-19 07:26:15 51°21.013 2°53.165 -999 134 12.2 101060 100
2005-10-19 07:26:20 51°21.028 2°53.172 -999 135 12.1 101060 100
2005-10-19 07:26:24 51°21.041 2°53.178 -999 139 12.1 101060 100
2005-10-19 07:26:30 51°21.06 2°53.186 -999 142 12.1 101060 100
2005-10-19 07:26:35 51°21.076 2°53.194 -999 138 12.1 101060 100
2005-10-19 07:26:40 51°21.093 2°53.2 -999 137 12.1 101060 100
2005-10-19 07:26:44 51°21.105 2°53.207 -999 135 12.1 101060 100
2005-10-19 07:26:50 51°21.124 2°53.215 -999 116 12.1 101060 100
2005-10-19 07:26:55 51°21.14 2°53.222 -999 113 12.1 101060 100
2005-10-19 07:27:00 51°21.156 2°53.229 -999 124 12.1 101060 100
2005-10-19 07:27:05 51°21.172 2°53.236 -999 140 12.1 101060 100
2005-10-19 07:27:10 51°21.188 2°53.243 -999 139 12.2 101060 100
2005-10-19 07:27:15 51°21.204 2°53.25 -999 133 12.2 101060 100
2005-10-19 07:27:20 51°21.22 2°53.258 -999 157 12.2 101060 100
2005-10-19 07:27:24 51°21.233 2°53.264 -999 117 12.2 101060 100
2005-10-19 07:27:30 51°21.252 2°53.273 -999 123 12.2 101060 100
2005-10-19 07:27:35 51°21.268 2°53.28 -999 129 12.2 101060 100
2005-10-19 07:27:40 51°21.284 2°53.287 -999 133 12.2 101060 100
2005-10-19 07:27:44 51°21.296 2°53.293 -999 141 12.2 101060 100
2005-10-19 07:27:50 51°21.316 2°53.301 -999 141 12.2 101060 100
2005-10-19 07:27:55 51°21.332 2°53.309 -999 144 12.2 101060 100
2005-10-19 07:28:00 51°21.348 2°53.315 -999 131 12.2 101060 100
2005-10-19 07:28:04 51°21.36 2°53.321 -999 135 12.2 101060 100
2005-10-19 07:28:10 51°21.38 2°53.33 -999 130 12.2 101050 100
2005-10-19 07:28:15 51°21.396 2°53.337 -999 147 12.2 101050 100
2005-10-19 07:28:20 51°21.412 2°53.343 -999 140 12.2 101060 100
2005-10-19 07:28:24 51°21.424 2°53.349 -999 144 12.2 101060 100
2005-10-19 07:28:30 51°21.444 2°53.358 -999 136 12.2 101060 100
2005-10-19 07:28:35 51°21.459 2°53.364 -999 138 12.2 101060 100
2005-10-19 07:28:40 51°21.476 2°53.371 -999 125 12.2 101060 100
2005-10-19 07:28:44 51°21.489 2°53.376 -999 138 12.2 101060 100
2005-10-19 07:28:50 51°21.508 2°53.383 -999 100 12.2 101060 100
2005-10-19 07:28:55 51°21.524 2°53.39 -999 94 12.2 101060 100
2005-10-19 07:29:00 51°21.54 2°53.396 -999 114 12.1 101060 100
2005-10-19 07:29:05 51°21.556 2°53.402 -999 128 12.1 101060 100
2005-10-19 07:29:10 51°21.573 2°53.409 -999 133 12.2 101060 100
2005-10-19 07:29:15 51°21.589 2°53.415 -999 137 12.2 101060 100
2005-10-19 07:29:20 51°21.606 2°53.421 -999 141 12.2 101060 100
2005-10-19 07:29:24 51°21.619 2°53.425 -999 144 12.2 101060 100
2005-10-19 07:29:30 51°21.637 2°53.433 -999 136 12.2 101060 100
2005-10-19 07:29:35 51°21.654 2°53.439 -999 142 12.2 101060 100
2005-10-19 07:29:40 51°21.67 2°53.445 -999 131 12.3 101060 100
2005-10-19 07:29:44 51°21.683 2°53.45 -999 154 12.3 101060 100
2005-10-19 07:29:50 51°21.702 2°53.457 -999 156 12.2 101070 100
2005-10-19 07:29:55 51°21.718 2°53.464 -999 135 12.2 101070 100
2005-10-19 07:30:00 51°21.734 2°53.47 -999 125 12.2 101060 100
2005-10-19 07:30:04 51°21.747 2°53.475 -999 143 12.2 101060 100
2005-10-19 07:30:10 51°21.766 2°53.483 -999 147 12.2 101060 100
2005-10-19 07:30:15 51°21.783 2°53.49 -999 135 12.2 101060 100
2005-10-19 07:30:20 51°21.798 2°53.497 -999 139 12.2 101060 100
2005-10-19 07:30:24 51°21.811 2°53.502 -999 131 12.2 101060 100
2005-10-19 07:30:30 51°21.831 2°53.51 -999 137 12.2 101060 100
2005-10-19 07:30:35 51°21.847 2°53.516 -999 118 12.2 101060 100
2005-10-19 07:30:40 51°21.863 2°53.523 -999 119 12.2 101060 100
2005-10-19 07:30:44 51°21.876 2°53.528 -999 121 12.2 101060 100
2005-10-19 07:30:50 51°21.896 2°53.536 -999 115 12.2 101060 100
2005-10-19 07:30:55 51°21.911 2°53.543 -999 117 12.2 101060 100
2005-10-19 07:31:00 51°21.928 2°53.549 -999 120 12.2 101060 100
2005-10-19 07:31:04 51°21.941 2°53.555 -999 122 12.2 101060 100
2005-10-19 07:31:10 51°21.96 2°53.564 -999 112 12.2 101060 100
2005-10-19 07:31:15 51°21.976 2°53.57 -999 121 12.2 101060 100
2005-10-19 07:31:20 51°21.992 2°53.577 -999 122 12.2 101060 100
2005-10-19 07:31:24 51°22.005 2°53.582 -999 101 12.2 101060 100
2005-10-19 07:31:30 51°22.025 2°53.59 -999 118 12.2 101060 100
2005-10-19 07:31:35 51°22.041 2°53.597 -999 129 12.2 101060 100
2005-10-19 07:31:40 51°22.058 2°53.603 -999 132 12.2 101060 100
2005-10-19 07:31:44 51°22.071 2°53.609 -999 126 12.2 101060 100
2005-10-19 07:31:50 51°22.091 2°53.617 -999 133 12.2 101060 100
2005-10-19 07:31:55 51°22.107 2°53.624 -999 123 12.2 101060 100
2005-10-19 07:32:00 51°22.123 2°53.63 -999 114 12.2 101060 100
2005-10-19 07:32:04 51°22.136 2°53.636 -999 137 12.2 101060 100
2005-10-19 07:32:10 51°22.156 2°53.643 -999 144 12.2 101060 100
2005-10-19 07:32:15 51°22.172 2°53.65 -999 134 12.2 101060 100
2005-10-19 07:32:20 51°22.189 2°53.656 -999 136 12.2 101060 100
2005-10-19 07:32:24 51°22.202 2°53.66 -999 126 12.2 101060 100
2005-10-19 07:32:30 51°22.222 2°53.668 -999 107 12.2 101060 100
2005-10-19 07:32:35 51°22.238 2°53.673 -999 118 12.2 101060 100
2005-10-19 07:32:40 51°22.255 2°53.678 -999 117 12.2 101070 100
2005-10-19 07:32:44 51°22.268 2°53.681 -999 132 12.2 101070 100
2005-10-19 07:32:50 51°22.288 2°53.687 -999 125 12.2 101060 100
2005-10-19 07:32:55 51°22.305 2°53.69 -999 129 12.2 101060 100
2005-10-19 07:33:00 51°22.322 2°53.694 -999 135 12.2 101060 100
2005-10-19 07:33:04 51°22.335 2°53.698 -999 137 12.2 101060 100
2005-10-19 07:33:10 51°22.355 2°53.704 -999 44 12.3 101060 100
2005-10-19 07:33:15 51°22.372 2°53.708 -999 140 12.3 101060 100
2005-10-19 07:33:20 51°22.388 2°53.713 -999 142 12.3 101060 100
2005-10-19 07:33:24 51°22.401 2°53.717 -999 -999 12.3 101060 100
2005-10-19 07:33:30 51°22.421 2°53.722 -999 117 12.3 101070 100
2005-10-19 07:33:35 51°22.437 2°53.727 -999 130 12.3 101070 100
2005-10-19 07:33:40 51°22.454 2°53.731 -999 153 12.2 101060 100
2005-10-19 07:33:44 51°22.468 2°53.735 -999 140 12.2 101060 100
2005-10-19 07:33:50 51°22.487 2°53.74 -999 118 12.3 101060 100
2005-10-19 07:33:55 51°22.504 2°53.744 -999 117 12.3 101060 100
2005-10-19 07:34:00 51°22.521 2°53.749 -999 114 12.3 101070 100
2005-10-19 07:34:04 51°22.534 2°53.752 -999 112 12.3 101070 100
2005-10-19 07:34:10 51°22.554 2°53.757 -999 116 12.3 101070 100
2005-10-19 07:34:15 51°22.57 2°53.762 -999 122 12.3 101070 100
2005-10-19 07:34:20 51°22.587 2°53.767 -999 118 12.3 101060 100
2005-10-19 07:34:24 51°22.6 2°53.771 -999 113 12.3 101060 100
2005-10-19 07:34:30 51°22.62 2°53.777 -999 118 12.2 101060 100
2005-10-19 07:34:35 51°22.636 2°53.781 -999 119 12.2 101060 100
2005-10-19 07:34:40 51°22.653 2°53.786 -999 118 12.3 101060 100
2005-10-19 07:34:44 51°22.666 2°53.791 -999 129 12.3 101060 100
2005-10-19 07:34:50 51°22.686 2°53.796 -999 123 12.3 101070 100
2005-10-19 07:34:55 51°22.702 2°53.801 -999 114 12.3 101070 100
2005-10-19 07:35:00 51°22.719 2°53.805 -999 113 12.3 101060 100
2005-10-19 07:35:05 51°22.736 2°53.811 -999 120 12.3 101060 100
2005-10-19 07:35:10 51°22.752 2°53.815 -999 131 12.3 101060 100
2005-10-19 07:35:15 51°22.769 2°53.82 -999 118 12.3 101060 100
2005-10-19 07:35:20 51°22.785 2°53.824 -999 127 12.3 101060 100
2005-10-19 07:35:24 51°22.798 2°53.828 -999 135 12.3 101060 100
2005-10-19 07:35:30 51°22.818 2°53.834 -999 127 12.3 101060 100
2005-10-19 07:35:35 51°22.834 2°53.84 -999 110 12.3 101060 100
2005-10-19 07:35:40 51°22.851 2°53.845 -999 116 12.3 101060 100
2005-10-19 07:35:45 51°22.867 2°53.85 -999 113 12.3 101060 100
2005-10-19 07:35:50 51°22.884 2°53.856 -999 119 12.3 101070 100
2005-10-19 07:35:55 51°22.9 2°53.86 -999 130 12.3 101070 100
2005-10-19 07:36:00 51°22.916 2°53.864 -999 131 12.2 101070 100
2005-10-19 07:36:04 51°22.93 2°53.867 -999 144 12.2 101070 100
2005-10-19 07:36:10 51°22.95 2°53.872 -999 145 12.2 101060 100
2005-10-19 07:36:15 51°22.966 2°53.875 -999 140 12.2 101060 100
2005-10-19 07:36:20 51°22.982 2°53.879 -999 131 12.2 101070 100
2005-10-19 07:36:25 51°22.999 2°53.882 -999 132 12.2 101070 100
2005-10-19 07:36:30 51°23.015 2°53.886 -999 95 12.2 101070 100
2005-10-19 07:36:35 51°23.032 2°53.89 -999 113 12.2 101070 100
2005-10-19 07:36:40 51°23.048 2°53.895 -999 110 12.2 101070 100
2005-10-19 07:36:44 51°23.061 2°53.898 -999 112 12.2 101070 100
2005-10-19 07:36:50 51°23.082 2°53.903 -999 119 12.2 101070 100
2005-10-19 07:36:55 51°23.097 2°53.907 -999 131 12.2 101070 100
2005-10-19 07:37:00 51°23.114 2°53.911 -999 142 12.2 101070 100
2005-10-19 07:37:04 51°23.128 2°53.914 -999 126 12.2 101070 100
2005-10-19 07:37:10 51°23.147 2°53.919 -999 113 12.3 101070 100
2005-10-19 07:37:15 51°23.164 2°53.923 -999 132 12.3 101070 100
2005-10-19 07:37:20 51°23.18 2°53.927 -999 138 12.3 101080 100
2005-10-19 07:37:24 51°23.193 2°53.931 -999 145 12.3 101080 100
2005-10-19 07:37:30 51°23.214 2°53.935 -999 145 12.3 101070 100
2005-10-19 07:37:35 51°23.23 2°53.939 -999 152 12.3 101070 100
2005-10-19 07:37:40 51°23.247 2°53.942 -999 147 12.3 101070 100
2005-10-19 07:37:44 51°23.26 2°53.946 -999 141 12.3 101070 100
2005-10-19 07:37:50 51°23.28 2°53.95 -999 137 12.3 101060 100
2005-10-19 07:37:55 51°23.296 2°53.955 -999 130 12.3 101060 100
2005-10-19 07:38:00 51°23.313 2°53.958 -999 127 12.3 101070 100
2005-10-19 07:38:04 51°23.326 2°53.962 -999 124 12.3 101070 100
2005-10-19 07:38:10 51°23.346 2°53.967 -999 134 12.3 101070 100
2005-10-19 07:38:15 51°23.363 2°53.971 -999 152 12.3 101070 100
2005-10-19 07:38:20 51°23.379 2°53.976 -999 146 12.3 101070 100
2005-10-19 07:38:24 51°23.392 2°53.979 -999 151 12.3 101070 100
2005-10-19 07:38:30 51°23.412 2°53.984 -999 140 12.3 101070 100
2005-10-19 07:38:35 51°23.428 2°53.988 -999 145 12.3 101070 100
2005-10-19 07:38:40 51°23.444 2°53.992 -999 133 12.3 101070 100
2005-10-19 07:38:44 51°23.457 2°53.995 -999 107 12.3 101070 100
2005-10-19 07:38:50 51°23.477 2°54 -999 130 12.3 101070 100
2005-10-19 07:38:55 51°23.494 2°54.004 -999 147 12.3 101070 100
2005-10-19 07:39:00 51°23.51 2°54.008 -999 148 12.3 101070 100
2005-10-19 07:39:04 51°23.523 2°54.011 -999 144 12.3 101070 100
2005-10-19 07:39:10 51°23.542 2°54.015 -999 131 12.3 101070 100
2005-10-19 07:39:15 51°23.559 2°54.019 -999 140 12.3 101070 100
2005-10-19 07:39:20 51°23.575 2°54.022 -999 148 12.3 101070 100
2005-10-19 07:39:25 51°23.592 2°54.026 -999 151 12.3 101070 100
2005-10-19 07:39:30 51°23.608 2°54.031 -999 152 12.3 101070 100
2005-10-19 07:39:35 51°23.624 2°54.035 -999 155 12.3 101070 100
2005-10-19 07:39:40 51°23.641 2°54.038 -999 150 12.3 101070 100
2005-10-19 07:39:44 51°23.654 2°54.041 -999 154 12.3 101070 100
2005-10-19 07:39:50 51°23.673 2°54.046 -999 143 12.3 101080 100
2005-10-19 07:39:55 51°23.69 2°54.05 -999 142 12.3 101080 100
2005-10-19 07:40:00 51°23.705 2°54.054 -999 142 12.3 101070 100
2005-10-19 07:40:05 51°23.721 2°54.058 -999 146 12.3 101070 100
2005-10-19 07:40:10 51°23.738 2°54.062 -999 147 12.3 101080 100
2005-10-19 07:40:15 51°23.754 2°54.065 -999 150 12.3 101080 100
2005-10-19 07:40:20 51°23.77 2°54.07 -999 146 12.3 101070 100
2005-10-19 07:40:24 51°23.783 2°54.072 -999 140 12.3 101070 100
2005-10-19 07:40:30 51°23.803 2°54.077 -999 173 12.3 101080 100
2005-10-19 07:40:35 51°23.819 2°54.081 -999 143 12.3 101080 100
2005-10-19 07:40:40 51°23.835 2°54.085 -999 137 12.4 101080 100
2005-10-19 07:40:45 51°23.852 2°54.089 -999 176 12.4 101080 100
2005-10-19 07:40:50 51°23.868 2°54.093 -999 173 12.4 101070 100
2005-10-19 07:40:55 51°23.884 2°54.097 -999 168 12.4 101070 100
2005-10-19 07:41:00 51°23.9 2°54.102 -999 168 12.4 101080 100
2005-10-19 07:41:04 51°23.913 2°54.104 -999 114 12.4 101080 100
2005-10-19 07:41:10 51°23.933 2°54.11 -999 147 12.4 101080 100
2005-10-19 07:41:15 51°23.949 2°54.113 -999 160 12.4 101080 100
2005-10-19 07:41:20 51°23.965 2°54.118 -999 177 12.4 101080 100
2005-10-19 07:41:24 51°23.979 2°54.121 -999 180 12.4 101080 100
2005-10-19 07:41:30 51°23.998 2°54.125 -999 145 12.4 101080 100
2005-10-19 07:41:35 51°24.014 2°54.129 -999 151 12.4 101080 100
2005-10-19 07:41:40 51°24.031 2°54.133 -999 148 12.5 101080 100
2005-10-19 07:41:44 51°24.044 2°54.137 -999 187 12.5 101080 100
2005-10-19 07:41:50 51°24.063 2°54.14 -999 215 12.5 101080 100
2005-10-19 07:41:55 51°24.079 2°54.145 -999 153 12.5 101080 100
2005-10-19 07:42:00 51°24.096 2°54.148 -999 149 12.5 101080 100
2005-10-19 07:42:04 51°24.109 2°54.151 -999 153 12.5 101080 100
2005-10-19 07:42:10 51°24.128 2°54.156 -999 148 12.5 101080 100
2005-10-19 07:42:15 51°24.145 2°54.16 -999 150 12.5 101080 100
2005-10-19 07:42:20 51°24.161 2°54.163 -999 144 12.5 101070 100
2005-10-19 07:42:24 51°24.174 2°54.166 -999 162 12.5 101070 100
2005-10-19 07:42:30 51°24.194 2°54.171 -999 145 12.6 101080 100
2005-10-19 07:42:35 51°24.21 2°54.174 -999 158 12.6 101080 100
2005-10-19 07:42:40 51°24.227 2°54.178 -999 147 12.6 101080 100
2005-10-19 07:42:44 51°24.24 2°54.181 -999 149 12.6 101080 100
2005-10-19 07:42:50 51°24.26 2°54.187 -999 147 12.6 101070 100
2005-10-19 07:42:55 51°24.276 2°54.191 -999 157 12.6 101070 100
2005-10-19 07:43:00 51°24.292 2°54.195 -999 145 12.6 101080 100
2005-10-19 07:43:04 51°24.306 2°54.198 -999 148 12.6 101080 100
2005-10-19 07:43:10 51°24.325 2°54.201 -999 155 12.6 101080 100
2005-10-19 07:43:15 51°24.342 2°54.205 -999 154 12.6 101080 100
2005-10-19 07:43:20 51°24.358 2°54.209 -999 144 12.6 101080 100
2005-10-19 07:43:25 51°24.375 2°54.213 -999 141 12.6 101080 100
2005-10-19 07:43:30 51°24.392 2°54.218 -999 151 12.6 101080 100
2005-10-19 07:43:35 51°24.407 2°54.22 -999 159 12.6 101080 100
2005-10-19 07:43:40 51°24.423 2°54.226 -999 151 12.5 101080 100
2005-10-19 07:43:44 51°24.436 2°54.228 -999 156 12.5 101080 100
2005-10-19 07:43:50 51°24.456 2°54.234 -999 152 12.5 101080 100
2005-10-19 07:43:55 51°24.472 2°54.238 -999 154 12.5 101080 100
2005-10-19 07:44:00 51°24.488 2°54.243 -999 152 12.5 101080 100
2005-10-19 07:44:04 51°24.501 2°54.247 -999 150 12.5 101080 100
2005-10-19 07:44:10 51°24.52 2°54.252 -999 146 12.5 101070 100
2005-10-19 07:44:15 51°24.536 2°54.257 -999 152 12.5 101070 100
2005-10-19 07:44:20 51°24.552 2°54.261 -999 154 12.5 101080 100
2005-10-19 07:44:24 51°24.565 2°54.265 -999 -999 12.5 101080 100
2005-10-19 07:44:30 51°24.585 2°54.269 -999 149 12.5 101070 100
2005-10-19 07:44:35 51°24.601 2°54.273 -999 155 12.5 101070 100
2005-10-19 07:44:40 51°24.617 2°54.278 -999 141 12.5 101080 100
2005-10-19 07:44:44 51°24.629 2°54.282 -999 148 12.5 101080 100
2005-10-19 07:44:50 51°24.648 2°54.287 -999 135 12.4 101070 100
2005-10-19 07:44:55 51°24.664 2°54.293 -999 143 12.4 101070 100
2005-10-19 07:45:00 51°24.681 2°54.297 -999 148 12.4 101080 100
2005-10-19 07:45:05 51°24.696 2°54.302 -999 146 12.4 101080 100
2005-10-19 07:45:10 51°24.712 2°54.307 -999 129 12.4 101070 100
2005-10-19 07:45:15 51°24.728 2°54.311 -999 160 12.4 101070 100
2005-10-19 07:45:20 51°24.744 2°54.315 -999 123 12.4 101080 100
2005-10-19 07:45:24 51°24.756 2°54.319 -999 144 12.4 101080 100
2005-10-19 07:45:30 51°24.776 2°54.324 -999 142 12.4 101070 100
2005-10-19 07:45:35 51°24.792 2°54.329 -999 159 12.4 101070 100
2005-10-19 07:45:40 51°24.808 2°54.333 -999 160 12.5 101070 100
2005-10-19 07:45:45 51°24.825 2°54.338 -999 166 12.5 101070 100
2005-10-19 07:45:50 51°24.842 2°54.342 -999 145 12.5 101070 100
2005-10-19 07:45:55 51°24.858 2°54.345 -999 163 12.5 101070 100
2005-10-19 07:46:00 51°24.873 2°54.35 -999 154 12.5 101070 100
2005-10-19 07:46:04 51°24.886 2°54.354 -999 153 12.5 101070 100
2005-10-19 07:46:10 51°24.906 2°54.358 -999 156 12.5 101070 100
2005-10-19 07:46:15 51°24.921 2°54.362 -999 152 12.5 101070 100
2005-10-19 07:46:20 51°24.938 2°54.367 -999 151 12.5 101080 100
2005-10-19 07:46:25 51°24.955 2°54.371 -999 164 12.5 101080 100
2005-10-19 07:46:30 51°24.971 2°54.375 -999 167 12.5 101070 100
2005-10-19 07:46:35 51°24.987 2°54.38 -999 173 12.5 101070 100
2005-10-19 07:46:40 51°25.004 2°54.384 -999 177 12.5 101070 100
2005-10-19 07:46:45 51°25.02 2°54.388 -999 168 12.5 101070 100
2005-10-19 07:46:50 51°25.036 2°54.392 -999 162 12.5 101060 100
2005-10-19 07:46:55 51°25.052 2°54.396 -999 120 12.5 101060 100
2005-10-19 07:47:00 51°25.069 2°54.4 -999 120 12.5 101070 100
2005-10-19 07:47:04 51°25.082 2°54.403 -999 147 12.5 101070 100
2005-10-19 07:47:10 51°25.102 2°54.408 -999 139 12.5 101070 100
2005-10-19 07:47:15 51°25.118 2°54.411 -999 150 12.5 101070 100
2005-10-19 07:47:20 51°25.135 2°54.416 -999 154 12.5 101070 100
2005-10-19 07:47:24 51°25.148 2°54.419 -999 137 12.5 101070 100
2005-10-19 07:47:30 51°25.168 2°54.425 -999 162 12.5 101080 100
2005-10-19 07:47:35 51°25.184 2°54.43 -999 151 12.5 101080 100
2005-10-19 07:47:40 51°25.201 2°54.434 -999 131 12.5 101070 100
2005-10-19 07:47:44 51°25.214 2°54.438 -999 144 12.5 101070 100
2005-10-19 07:47:50 51°25.234 2°54.443 -999 145 12.5 101070 100
2005-10-19 07:47:55 51°25.25 2°54.447 -999 138 12.5 101070 100
2005-10-19 07:48:00 51°25.267 2°54.451 -999 149 12.5 101070 100
2005-10-19 07:48:04 51°25.28 2°54.454 -999 144 12.5 101070 100
2005-10-19 07:48:10 51°25.3 2°54.46 -999 142 12.5 101080 100
2005-10-19 07:48:15 51°25.316 2°54.463 -999 144 12.5 101080 100
2005-10-19 07:48:20 51°25.332 2°54.468 -999 142 12.6 101070 100
2005-10-19 07:48:24 51°25.345 2°54.472 -999 140 12.6 101070 100
2005-10-19 07:48:30 51°25.365 2°54.477 -999 146 12.6 101070 100
2005-10-19 07:48:35 51°25.381 2°54.481 -999 154 12.6 101070 100
2005-10-19 07:48:40 51°25.398 2°54.486 -999 159 12.6 101070 100
2005-10-19 07:48:44 51°25.41 2°54.489 -999 147 12.6 101070 100
2005-10-19 07:48:50 51°25.43 2°54.495 -999 147 12.6 101070 100
2005-10-19 07:48:55 51°25.446 2°54.499 -999 142 12.6 101070 100
2005-10-19 07:49:00 51°25.462 2°54.504 -999 150 12.6 101070 100
2005-10-19 07:49:04 51°25.475 2°54.507 -999 137 12.6 101070 100
2005-10-19 07:49:10 51°25.494 2°54.511 -999 142 12.6 101070 100
2005-10-19 07:49:15 51°25.51 2°54.516 -999 136 12.6 101070 100
2005-10-19 07:49:20 51°25.526 2°54.52 -999 143 12.6 101070 100
2005-10-19 07:49:24 51°25.539 2°54.524 -999 155 12.6 101070 100
2005-10-19 07:49:30 51°25.559 2°54.529 -999 147 12.6 101070 100
2005-10-19 07:49:35 51°25.575 2°54.534 -999 144 12.6 101070 100
2005-10-19 07:49:40 51°25.591 2°54.539 -999 157 12.6 101070 100
2005-10-19 07:49:44 51°25.604 2°54.543 -999 167 12.6 101070 100
2005-10-19 07:49:50 51°25.624 2°54.548 -999 165 12.5 101070 100
2005-10-19 07:49:55 51°25.64 2°54.552 -999 169 12.5 101070 100
2005-10-19 07:50:00 51°25.656 2°54.557 -999 173 12.5 101070 100
2005-10-19 07:50:04 51°25.669 2°54.56 -999 168 12.5 101070 100
2005-10-19 07:50:10 51°25.689 2°54.565 -999 151 12.5 101070 100
2005-10-19 07:50:15 51°25.706 2°54.569 -999 151 12.5 101070 100
2005-10-19 07:50:20 51°25.722 2°54.573 -999 158 12.5 101070 100
2005-10-19 07:50:24 51°25.735 2°54.575 -999 158 12.5 101070 100
2005-10-19 07:50:30 51°25.755 2°54.579 -999 162 12.5 101070 100
2005-10-19 07:50:35 51°25.771 2°54.583 -999 152 12.5 101070 100
2005-10-19 07:50:40 51°25.787 2°54.587 -999 159 12.5 101060 100
2005-10-19 07:50:45 51°25.803 2°54.59 -999 153 12.5 101060 100
2005-10-19 07:50:50 51°25.82 2°54.594 -999 161 12.5 101060 100
2005-10-19 07:50:55 51°25.836 2°54.597 -999 122 12.5 101060 100
2005-10-19 07:51:00 51°25.853 2°54.601 -999 149 12.5 101070 100
2005-10-19 07:51:04 51°25.866 2°54.604 -999 169 12.5 101070 100
2005-10-19 07:51:10 51°25.885 2°54.608 -999 162 12.5 101070 100
2005-10-19 07:51:15 51°25.901 2°54.612 -999 168 12.5 101070 100
2005-10-19 07:51:20 51°25.917 2°54.616 -999 165 12.5 101070 100
2005-10-19 07:51:24 51°25.93 2°54.62 -999 157 12.5 101070 100
2005-10-19 07:51:30 51°25.95 2°54.625 -999 164 12.5 101070 100
2005-10-19 07:51:35 51°25.966 2°54.629 -999 171 12.5 101070 100
2005-10-19 07:51:40 51°25.983 2°54.633 -999 178 12.6 101070 100
2005-10-19 07:51:44 51°25.995 2°54.636 -999 171 12.6 101070 100
2005-10-19 07:51:50 51°26.015 2°54.641 -999 187 12.6 101070 100
2005-10-19 07:51:55 51°26.031 2°54.645 -999 172 12.6 101070 100
2005-10-19 07:52:00 51°26.047 2°54.649 -999 167 12.5 101060 100
2005-10-19 07:52:04 51°26.061 2°54.652 -999 176 12.5 101060 100
2005-10-19 07:52:10 51°26.08 2°54.655 -999 164 12.5 101060 100
2005-10-19 07:52:15 51°26.096 2°54.659 -999 175 12.5 101060 100
2005-10-19 07:52:20 51°26.113 2°54.664 -999 165 12.5 101070 100
2005-10-19 07:52:24 51°26.126 2°54.668 -999 175 12.5 101070 100
2005-10-19 07:52:30 51°26.146 2°54.672 -999 162 12.5 101070 100
2005-10-19 07:52:35 51°26.162 2°54.678 -999 165 12.5 101070 100
2005-10-19 07:52:40 51°26.178 2°54.682 -999 159 12.5 101070 100
2005-10-19 07:52:44 51°26.191 2°54.686 -999 161 12.5 101070 100
2005-10-19 07:52:50 51°26.21 2°54.692 -999 169 12.5 101070 100
2005-10-19 07:52:55 51°26.226 2°54.698 -999 176 12.5 101070 100
2005-10-19 07:53:00 51°26.242 2°54.703 -999 146 12.4 101070 100
2005-10-19 07:53:04 51°26.255 2°54.707 -999 145 12.4 101070 100
2005-10-19 07:53:10 51°26.274 2°54.714 -999 130 12.4 101070 100
2005-10-19 07:53:15 51°26.29 2°54.719 -999 152 12.4 101070 100
2005-10-19 07:53:20 51°26.306 2°54.724 -999 157 12.5 101070 100
2005-10-19 07:53:25 51°26.321 2°54.73 -999 154 12.5 101070 100
2005-10-19 07:53:30 51°26.337 2°54.735 -999 162 12.5 101070 100
2005-10-19 07:53:35 51°26.353 2°54.741 -999 156 12.5 101070 100
2005-10-19 07:53:39 51°26.365 2°54.746 -999 131 12.5 101070 100
2005-10-19 07:53:44 51°26.382 2°54.75 -999 144 12.5 101070 100
2005-10-19 07:53:50 51°26.401 2°54.757 -999 153 12.5 101070 100
2005-10-19 07:53:55 51°26.416 2°54.762 -999 155 12.5 101070 100
2005-10-19 07:54:00 51°26.432 2°54.767 -999 154 12.5 101070 100
2005-10-19 07:54:04 51°26.445 2°54.771 -999 161 12.5 101070 100
2005-10-19 07:54:10 51°26.464 2°54.776 -999 152 12.6 101070 100
2005-10-19 07:54:15 51°26.48 2°54.782 -999 151 12.6 101070 100
2005-10-19 07:54:20 51°26.496 2°54.787 -999 155 12.6 101070 100
2005-10-19 07:54:25 51°26.513 2°54.792 -999 159 12.6 101070 100
2005-10-19 07:54:30 51°26.528 2°54.796 -999 159 12.5 101060 100
2005-10-19 07:54:35 51°26.544 2°54.801 -999 161 12.5 101060 100
2005-10-19 07:54:40 51°26.56 2°54.804 -999 165 12.5 101070 100
2005-10-19 07:54:44 51°26.573 2°54.808 -999 173 12.5 101070 100
2005-10-19 07:54:50 51°26.591 2°54.813 -999 156 12.5 101060 100
2005-10-19 07:54:55 51°26.608 2°54.817 -999 169 12.5 101060 100
2005-10-19 07:55:00 51°26.623 2°54.822 -999 133 12.5 101060 100
2005-10-19 07:55:04 51°26.636 2°54.825 -999 163 12.5 101060 100
2005-10-19 07:55:10 51°26.655 2°54.831 -999 151 12.5 101070 100
2005-10-19 07:55:15 51°26.672 2°54.834 -999 159 12.5 101070 100
2005-10-19 07:55:20 51°26.688 2°54.838 -999 139 12.5 101070 100
2005-10-19 07:55:24 51°26.7 2°54.841 -999 149 12.5 101070 100
2005-10-19 07:55:30 51°26.721 2°54.847 -999 124 12.5 101070 100
2005-10-19 07:55:35 51°26.736 2°54.851 -999 162 12.5 101070 100
2005-10-19 07:55:40 51°26.752 2°54.856 -999 162 12.5 101070 100
2005-10-19 07:55:45 51°26.768 2°54.86 -999 171 12.5 101070 100
2005-10-19 07:55:50 51°26.785 2°54.864 -999 183 12.6 101070 100
2005-10-19 07:55:55 51°26.8 2°54.868 -999 211 12.6 101070 100
2005-10-19 07:56:00 51°26.816 2°54.872 -999 169 12.6 101070 100
2005-10-19 07:56:04 51°26.829 2°54.875 -999 169 12.6 101070 100
2005-10-19 07:56:10 51°26.848 2°54.881 -999 154 12.6 101070 100
2005-10-19 07:56:15 51°26.864 2°54.885 -999 156 12.6 101070 100
2005-10-19 07:56:20 51°26.88 2°54.889 -999 156 12.6 101070 100
2005-10-19 07:56:25 51°26.896 2°54.894 -999 171 12.6 101070 100